| time (UTC) | temp F | wind direction | speed MPH | gust MPH | rain 1hr in | rain 24hr in | rain mn in | humidity % | barometer mb |
| 20260505221522 | 75 | 250 | 6.0 | 0.0 | 0.00 | 0.00 | 0.00 | 28 | 1007.3 |
| 20260505220021 | 75 | 238 | 8.0 | 0.0 | 0.00 | 0.00 | 0.00 | 28 | 1007.5 |
| 20260505214522 | 74 | 277 | 8.0 | 0.0 | 0.00 | 0.00 | 0.00 | 28 | 1007.5 |
| 20260505213018 | 75 | 252 | 7.0 | 0.0 | 0.00 | 0.00 | 0.00 | 28 | 1007.7 |
| 20260505211518 | 75 | 246 | 9.0 | 0.0 | 0.00 | 0.00 | 0.00 | 27 | 1007.9 |
| 20260505210017 | 75 | 281 | 8.0 | 0.0 | 0.00 | 0.00 | 0.00 | 28 | 1008.0 |
| 20260505204514 | 74 | 265 | 8.0 | 0.0 | 0.00 | 0.00 | 0.00 | 31 | 1008.1 |
| 20260505203012 | 74 | 250 | 9.0 | 0.0 | 0.00 | 0.00 | 0.00 | 33 | 1008.2 |
| 20260505201511 | 73 | 236 | 7.0 | 0.0 | 0.00 | 0.00 | 0.00 | 34 | 1008.5 |
| 20260505200025 | 72 | 279 | 8.0 | 0.0 | 0.00 | 0.00 | 0.00 | 38 | 1008.4 |
| 20260505194509 | 73 | 277 | 7.0 | 0.0 | 0.00 | 0.00 | 0.00 | 38 | 1008.4 |
| 20260505193009 | 72 | 232 | 7.0 | 0.0 | 0.00 | 0.00 | 0.00 | 37 | 1008.6 |
| 20260505191507 | 72 | 222 | 5.0 | 0.0 | 0.00 | 0.00 | 0.00 | 38 | 1008.9 |
| 20260505190003 | 72 | 205 | 8.0 | 0.0 | 0.00 | 0.00 | 0.00 | 38 | 1009.0 |
| 20260505184502 | 71 | 223 | 7.0 | 0.0 | 0.00 | 0.00 | 0.00 | 41 | 1009.1 |
| 20260505183000 | 71 | 256 | 6.0 | 0.0 | 0.00 | 0.00 | 0.00 | 41 | 1009.1 |
| 20260505181558 | 70 | 251 | 4.0 | 0.0 | 0.00 | 0.00 | 0.00 | 43 | 1009.2 |
| 20260505180103 | 69 | 284 | 2.0 | 0.0 | 0.00 | 0.00 | 0.00 | 50 | 1009.2 |
| 20260505174559 | 68 | 257 | 4.0 | 0.0 | 0.00 | 0.00 | 0.00 | 51 | 1009.2 |
| 20260505173052 | 67 | 272 | 4.0 | 0.0 | 0.00 | 0.00 | 0.00 | 53 | 1009.2 |
| 20260505171552 | 68 | 275 | 5.0 | 0.0 | 0.00 | 0.00 | 0.00 | 53 | 1009.2 |
| 20260505170050 | 68 | 219 | 4.0 | 0.0 | 0.00 | 0.00 | 0.00 | 51 | 1009.2 |
| 20260505164559 | 67 | 237 | 5.0 | 0.0 | 0.00 | 0.00 | 0.00 | 53 | 1009.2 |
| 20260505163055 | 67 | 250 | 6.0 | 0.0 | 0.00 | 0.00 | 0.00 | 53 | 1009.3 |
| 20260505161547 | 66 | 218 | 6.0 | 0.0 | 0.00 | 0.00 | 0.00 | 55 | 1009.4 |
| 20260505153057 | 66 | 199 | 2.0 | 0.0 | 0.00 | 0.00 | 0.00 | 57 | 1009.2 |
| 20260505151550 | 65 | 195 | 0.0 | 0.0 | 0.00 | 0.00 | 0.00 | 60 | 1009.1 |
| 20260505124527 | 63 | 144 | 4.0 | 0.0 | 0.00 | 0.00 | 0.00 | 72 | 1008.2 |
| 20260505123023 | 63 | 144 | 5.0 | 0.0 | 0.00 | 0.00 | 0.00 | 72 | 1008.2 |
| 20260505121522 | 63 | 146 | 6.0 | 0.0 | 0.00 | 0.00 | 0.00 | 72 | 1008.1 |
| 20260505120019 | 63 | 145 | 6.0 | 0.0 | 0.00 | 0.00 | 0.00 | 72 | 1008.1 |
| 20260505114531 | 63 | 138 | 5.0 | 0.0 | 0.00 | 0.00 | 0.00 | 71 | 1008.1 |
| 20260505113015 | 63 | 131 | 4.0 | 0.0 | 0.00 | 0.00 | 0.00 | 68 | 1008.0 |
| 20260505111514 | 64 | 128 | 3.0 | 0.0 | 0.00 | 0.00 | 0.00 | 66 | 1008.0 |
| 20260505101509 | 65 | 150 | 5.0 | 0.0 | 0.00 | 0.00 | 0.00 | 61 | 1009.1 |
| 20260505100010 | 65 | 165 | 3.0 | 0.0 | 0.00 | 0.00 | 0.00 | 61 | 1009.1 |
| 20260505094508 | 65 | 155 | 5.0 | 0.0 | 0.00 | 0.00 | 0.00 | 61 | 1009.1 |
| 20260505093007 | 64 | 173 | 4.0 | 0.0 | 0.00 | 0.00 | 0.00 | 63 | 1009.1 |
| 20260505091507 | 64 | 151 | 8.0 | 0.0 | 0.00 | 0.00 | 0.00 | 62 | 1009.2 |
| 20260505090003 | 65 | 169 | 7.0 | 0.0 | 0.00 | 0.00 | 0.00 | 60 | 1009.5 |
| 20260505084600 | 66 | 198 | 10.0 | 0.0 | 0.00 | 0.00 | 0.00 | 57 | 1009.5 |
| 20260505084502 | 66 | 165 | 10.0 | 0.0 | 0.00 | 0.00 | 0.00 | 57 | 1009.5 |
| 20260505083057 | 66 | 142 | 9.0 | 0.0 | 0.00 | 0.00 | 0.00 | 54 | 1009.6 |
| 20260505081601 | 67 | 168 | 9.0 | 0.0 | 0.00 | 0.00 | 0.00 | 51 | 1009.6 |
| 20260505080050 | 68 | 194 | 10.0 | 0.0 | 0.00 | 0.00 | 0.00 | 44 | 1009.7 |
| 20260505074605 | 69 | 192 | 5.0 | 0.0 | 0.00 | 0.00 | 0.00 | 43 | 1009.5 |
| 20260505073051 | 69 | 181 | 6.0 | 0.0 | 0.00 | 0.00 | 0.00 | 43 | 1009.6 |
| 20260505071541 | 69 | 186 | 6.0 | 0.0 | 0.00 | 0.00 | 0.00 | 41 | 1009.6 |
| 20260505070040 | 69 | 177 | 9.0 | 0.0 | 0.00 | 0.00 | 0.00 | 39 | 1009.6 |
| 20260505064538 | 70 | 175 | 9.0 | 0.0 | 0.00 | 0.00 | 0.00 | 35 | 1009.2 |
| 20260505063040 | 70 | 184 | 8.0 | 0.0 | 0.00 | 0.00 | 0.00 | 33 | 1009.0 |
| 20260505061536 | 71 | 160 | 8.0 | 0.0 | 0.00 | 0.00 | 0.00 | 30 | 1008.9 |
| 20260505060031 | 71 | 169 | 7.0 | 0.0 | 0.00 | 0.00 | 0.00 | 29 | 1008.8 |
| 20260505054530 | 72 | 183 | 6.0 | 0.0 | 0.00 | 0.00 | 0.00 | 30 | 1009.3 |
| 20260505053026 | 72 | 175 | 2.0 | 0.0 | 0.00 | 0.00 | 0.00 | 29 | 1009.4 |
| 20260505051529 | 72 | 180 | 5.0 | 0.0 | 0.00 | 0.00 | 0.00 | 30 | 1009.5 |
| 20260505041523 | 72 | 338 | 0.0 | 0.0 | 0.00 | 0.00 | 0.00 | 43 | 1009.1 |
| 20260505040023 | 73 | 338 | 0.0 | 0.0 | 0.00 | 0.00 | 0.00 | 42 | 1008.8 |
| 20260505034522 | 73 | 339 | 0.0 | 0.0 | 0.00 | 0.00 | 0.00 | 42 | 1008.7 |
| 20260505033033 | 73 | 339 | 0.0 | 0.0 | 0.00 | 0.00 | 0.00 | 41 | 1008.1 |
| 20260505031521 | 73 | 339 | 0.0 | 0.0 | 0.00 | 0.00 | 0.00 | 40 | 1008.1 |
| 20260505030021 | 73 | 339 | 1.0 | 0.0 | 0.00 | 0.00 | 0.00 | 39 | 1008.3 |
| 20260505024546 | 74 | 341 | 1.0 | 0.0 | 0.00 | 0.00 | 0.00 | 38 | 1008.0 |
| 20260505023020 | 74 | 342 | 1.0 | 0.0 | 0.00 | 0.00 | 0.00 | 38 | 1008.0 |
| 20260505021536 | 74 | 13 | 2.0 | 0.0 | 0.00 | 0.00 | 0.00 | 38 | 1008.0 |
| 20260505020019 | 75 | 15 | 1.0 | 0.0 | 0.00 | 0.00 | 0.00 | 38 | 1007.8 |
| 20260505014523 | 75 | 5 | 0.0 | 0.0 | 0.00 | 0.00 | 0.00 | 37 | 1007.7 |
| 20260505013017 | 75 | 315 | 0.0 | 0.0 | 0.00 | 0.00 | 0.00 | 37 | 1007.8 |
| 20260505011518 | 75 | 315 | 1.0 | 0.0 | 0.00 | 0.00 | 0.00 | 37 | 1007.8 |
| 20260505010016 | 75 | 309 | 0.0 | 0.0 | 0.00 | 0.00 | 0.00 | 37 | 1007.8 |
| 20260505004524 | 75 | 308 | 0.0 | 0.0 | 0.00 | 0.00 | 0.00 | 37 | 1007.8 |
| 20260505003014 | 75 | 279 | 1.0 | 0.0 | 0.00 | 0.00 | 0.00 | 37 | 1008.0 |
| 20260505001514 | 75 | 283 | 0.0 | 0.0 | 0.00 | 0.00 | 0.00 | 37 | 1008.2 |
| 20260505000014 | 75 | 297 | 0.0 | 0.0 | 0.00 | 0.00 | 0.00 | 37 | 1008.3 |
| 20260504234517 | 75 | 297 | 2.0 | 0.0 | 0.00 | 0.00 | 0.00 | 39 | 1008.1 |
| 20260504233013 | 74 | 304 | 2.0 | 0.0 | 0.00 | 0.00 | 0.00 | 39 | 1008.2 |
| 20260504231513 | 74 | 300 | 3.0 | 0.0 | 0.00 | 0.00 | 0.00 | 38 | 1008.2 |
| 20260504230013 | 74 | 299 | 1.0 | 0.0 | 0.00 | 0.00 | 0.00 | 38 | 1008.3 |
| 20260504224512 | 74 | 299 | 4.0 | 0.0 | 0.00 | 0.00 | 0.00 | 38 | 1008.7 |
| 20260504223012 | 74 | 319 | 8.0 | 0.0 | 0.00 | 0.00 | 0.00 | 38 | 1008.7 |